Location: Cahas Mountain Overlook
(37.0833°N, 80.1000°W)
Time: 17:30:43
(UTC-05:00)

ARIANE 6 FM1 Upper Stage - Pass Details

Date: 18 January 2026
Orbit: 522 x 609 km, 62.0° (Epoch: 15 February)

Event Time Altitude Azimuth Distance (km) Brightness Sun altitude
Rises 18:55:02 0° 179° (S) 2,724 6.3 -16.8°
Reaches altitude 10° 18:57:43 10° 162° (SSE) 1,817 5.2 -17.3°
Enters shadow 18:59:36 18° 137° (SE) 1,382 4.4 -17.6°
